Total_Precipitation_Accumulation
0.00 0.00 0.00 0.00 0.00 0.00 0.00 0.00 0.00 0.00 0.00 0.00 0.00 0.00 0.00 0.00 0.00 0.00 0.00 0.00 0.00 0.00 0.00 0.00 0.00 0.00 0.00 0.00 0.00 0.00 0.00 0.06 0.02 0.07 0.31 0.04 0.06 0.05 0.08 0.07 0.13 0.17 0.15 0.21 0.27 0.26 0.15 0.25 0.05 0.12 0.06 0.05 0.00 0.00 0.00 0.01 0.01 0.00 0.05 0.00 0.00 0.01 0.03 0.01 0.01 0.01 0.00 0.01 0.00 0.00 0.00 0.00 0.02 0.02 0.02 0.01 0.02 0.03 0.05 0.06 0.06 0.07 0.09 0.06 0.08 0.07 0.02 0.02 0.02 0.03 0.04 0.04 0.03 0.03 0.03 0.01 0.04
0.00 0.00 0.00 0.00 0.00 0.00 0.00 0.00 0.00 0.00 0.00 0.00 0.00 0.00 0.00 0.00 0.00 0.00 0.00 0.00 0.00 0.00 0.00 0.00 0.00 0.00 0.00 0.00 0.00 0.00 0.00 0.01 0.01 0.02 0.12 0.10 0.09 0.05 0.08 0.12 0.09 0.14 0.20 0.23 0.19 0.16 0.34 0.52 0.14 0.04 0.05 0.20 0.07 0.01 0.01 0.01 0.01 0.00 0.01 0.01 0.00 0.00 0.00 0.02 0.02 0.01 0.00 0.00 0.00 0.00 0.02 0.02 0.04 0.06 0.02 0.04 0.04 0.02 0.03 0.04 0.08 0.05 0.11 0.10 0.04 0.07 0.04 0.03 0.02 0.02 0.02 0.04 0.02 0.03 0.05 0.03 0.09
0.00 0.00 0.00 0.00 0.00 0.00 0.00 0.00 0.00 0.00 0.00 0.00 0.00 0.00 0.00 0.00 0.00 0.00 0.00 0.00 0.00 0.00 0.00 0.00 0.00 0.00 0.00 0.00 0.00 0.00 0.31 0.02 0.02 0.04 0.11 0.12 0.09 0.22 0.18 0.17 0.18 0.21 0.23 0.19 0.18 0.16 0.37 0.37 0.11 0.05 0.04 0.12 0.19 0.10 0.01 0.00 0.01 0.01 0.01 0.02 0.01 0.01 0.00 0.00 0.01 0.02 0.02 0.02 0.01 0.01 0.03 0.05 0.02 0.04 0.08 0.07 0.10 0.02 0.02 0.03 0.07 0.09 0.10 0.08 0.07 0.07 0.08 0.02 0.02 0.02 0.02 0.04 0.03 0.04 0.04 0.03 0.07
0.00 0.00 0.00 0.00 0.00 0.00 0.00 0.00 0.00 0.00 0.00 0.00 0.00 0.00 0.00 0.00 0.00 0.00 0.00 0.00 0.00 0.00 0.00 0.00 0.00 0.00 0.00 0.00 0.01 0.00 0.02 0.03 0.04 0.04 0.11 0.10 0.08 0.11 0.19 0.28 0.11 0.21 0.28 0.15 0.12 0.21 0.44 0.43 0.29 0.09 0.05 0.06 0.06 0.14 0.09 0.01 0.01 0.01 0.01 0.02 0.01 0.01 0.00 0.00 0.00 0.03 0.05 0.01 0.02 0.07 0.05 0.03 0.05 0.05 0.06 0.04 0.02 0.00 0.01 0.04 0.03 0.05 0.07 0.13 0.07 0.06 0.03 0.01 0.01 0.01 0.03 0.01 0.02 0.03 0.03 0.05 0.08
0.00 0.00 0.00 0.00 0.00 0.00 0.00 0.00 0.00 0.00 0.00 0.00 0.00 0.00 0.00 0.00 0.00 0.00 0.00 0.00 0.00 0.00 0.00 0.00 0.00 0.00 0.01 0.03 0.01 0.04 0.10 0.05 0.05 0.03 0.03 0.06 0.03 0.09 0.21 0.20 0.22 0.14 0.19 0.24 0.25 0.38 0.28 0.56 0.44 0.66 0.11 0.03 0.09 0.12 0.24 0.04 0.01 0.02 0.01 0.00 0.01 0.01 0.00 0.00 0.00 0.00 0.03 0.04 0.05 0.05 0.06 0.09 0.10 0.07 0.05 0.04 0.01 0.00 0.01 0.01 0.01 0.06 0.06 0.09 0.09 0.04 0.02 0.00 0.01 0.01 0.02 0.03 0.02 0.04 0.03 0.04 0.05
0.00 0.00 0.00 0.00 0.00 0.00 0.00 0.00 0.00 0.00 0.00 0.00 0.00 0.00 0.00 0.00 0.00 0.00 0.00 0.00 0.00 0.00 0.00 0.00 0.00 0.01 0.01 0.02 0.05 0.07 0.06 0.26 0.03 0.03 0.02 0.09 0.10 0.09 0.20 0.22 0.40 0.15 0.26 0.22 0.23 0.20 0.19 0.22 0.32 0.22 0.14 0.12 0.19 0.18 0.06 0.26 0.01 0.02 0.01 0.01 0.01 0.01 0.01 0.00 0.00 0.00 0.02 0.03 0.07 0.10 0.13 0.16 0.12 0.09 0.06 0.05 0.10 0.01 0.00 0.00 0.00 0.02 0.06 0.08 0.07 0.03 0.01 0.01 0.00 0.01 0.01 0.04 0.07 0.06 0.04 0.04 0.04
0.00 0.00 0.00 0.00 0.00 0.00 0.00 0.00 0.00 0.00 0.00 0.00 0.00 0.00 0.00 0.00 0.00 0.00 0.00 0.00 0.00 0.00 0.00 0.00 0.00 0.00 0.03 0.01 0.03 0.06 0.04 0.01 0.02 0.04 0.04 0.07 0.10 0.11 0.14 0.27 0.22 0.32 0.37 0.42 0.26 0.16 0.17 0.12 0.07 0.19 0.19 0.14 0.08 0.03 0.07 0.11 0.08 0.02 0.02 0.02 0.02 0.01 0.01 0.00 0.00 0.00 0.02 0.03 0.05 0.16 0.20 0.20 0.15 0.08 0.05 0.10 0.06 0.03 0.00 0.01 0.00 0.01 0.03 0.02 0.04 0.01 0.00 0.01 0.02 0.01 0.01 0.04 0.03 0.02 0.01 0.02 0.01
0.00 0.00 0.00 0.00 0.00 0.00 0.00 0.00 0.00 0.00 0.00 0.00 0.00 0.00 0.00 0.00 0.00 0.00 0.00 0.00 0.00 0.00 0.00 0.00 0.00 0.00 0.48 0.04 0.24 0.04 0.03 0.08 0.04 0.02 0.02 0.08 0.10 0.16 0.17 0.39 0.54 0.77 0.69 0.36 0.23 0.21 0.25 0.15 0.14 0.10 0.11 0.18 0.12 0.17 0.08 0.07 0.06 0.03 0.08 0.06 0.04 0.01 0.02 0.01 0.01 0.00 0.01 0.04 0.09 0.11 0.22 0.15 0.15 0.12 0.07 0.09 0.08 0.01 0.02 0.01 0.00 0.02 0.01 0.02 0.02 0.01 0.01 0.01 0.01 0.01 0.02 0.03 0.00 0.01 0.00 0.01 0.01
0.00 0.00 0.00 0.00 0.00 0.00 0.00 0.00 0.00 0.00 0.00 0.00 0.00 0.00 0.00 0.00 0.00 0.00 0.00 0.00 0.00 0.00 0.00 0.00 0.00 0.06 0.06 0.06 0.12 0.09 0.08 0.03 0.02 0.02 0.04 0.08 0.10 0.21 0.42 0.77 0.88 0.61 0.54 0.38 0.38 0.22 0.26 0.13 0.06 0.19 0.26 0.45 0.26 0.51 0.16 0.18 0.10 0.06 0.05 0.05 0.03 0.02 0.01 0.01 0.02 0.01 0.01 0.02 0.06 0.08 0.12 0.07 0.06 0.04 0.09 0.06 0.09 0.01 0.03 0.01 0.01 0.02 0.02 0.03 0.02 0.01 0.01 0.01 0.02 0.02 0.01 0.01 0.01 0.02 0.01 0.02 0.00
0.00 0.00 0.00 0.00 0.00 0.00 0.00 0.00 0.00 0.00 0.00 0.00 0.00 0.00 0.00 0.00 0.00 0.00 0.00 0.00 0.00 0.00 0.00 0.00 0.00 0.02 0.05 0.39 0.14 0.17 0.17 0.12 0.06 0.12 0.21 0.42 0.64 1.00 1.01 1.09 0.49 0.53 0.59 0.65 0.38 0.63 0.51 0.51 0.30 0.14 0.29 1.13 0.88 0.36 0.19 0.13 0.12 0.08 0.05 0.04 0.07 0.04 0.02 0.02 0.03 0.04 0.10 0.03 0.06 0.08 0.06 0.06 0.05 0.04 0.02 0.06 0.07 0.05 0.01 0.01 0.02 0.03 0.01 0.02 0.07 0.04 0.02 0.01 0.02 0.03 0.02 0.01 0.02 0.03 0.02 0.00 0.00
0.00 0.00 0.00 0.00 0.00 0.00 0.00 0.00 0.00 0.00 0.00 0.00 0.00 0.00 0.00 0.00 0.00 0.00 0.00 0.00 0.00 0.00 0.00 0.00 0.00 0.03 0.08 0.11 0.23 0.32 0.12 0.11 0.17 0.45 0.44 0.72 0.70 1.45 1.68 0.59 0.57 0.70 1.06 0.87 0.92 0.52 0.85 0.60 0.67 0.45 0.63 1.67 0.97 0.52 0.31 0.41 0.27 0.22 0.37 0.14 0.04 0.05 0.10 0.09 0.10 0.09 0.09 0.09 0.10 0.13 0.11 0.04 0.05 0.05 0.05 0.05 0.08 0.08 0.03 0.03 0.03 0.02 0.02 0.04 0.05 0.06 0.02 0.01 0.01 0.01 0.01 0.01 0.01 0.00 0.00 0.00 0.00
0.00 0.00 0.00 0.00 0.00 0.00 0.00 0.00 0.00 0.00 0.00 0.00 0.00 0.00 0.00 0.00 0.00 0.00 0.00 0.00 0.00 0.00 0.01 0.00 0.11 0.01 0.09 0.08 0.22 0.42 0.26 0.37 0.48 0.52 0.50 0.56 0.73 0.89 0.64 0.48 0.72 0.97 0.99 0.88 0.72 0.92 0.56 0.60 0.53 0.68 0.52 0.67 0.76 0.48 0.30 0.29 0.36 0.26 0.17 0.15 0.29 0.48 0.64 0.49 0.31 0.18 0.09 0.14 0.20 0.09 0.04 0.05 0.08 0.06 0.07 0.04 0.05 0.06 0.06 0.07 0.05 0.05 0.03 0.09 0.05 0.01 0.01 0.01 0.01 0.01 0.00 0.00 0.00 0.00 0.00 0.00 0.00
0.00 0.00 0.00 0.00 0.00 0.00 0.00 0.00 0.00 0.00 0.00 0.00 0.00 0.00 0.00 0.00 0.00 0.00 0.00 0.00 0.00 0.00 0.00 0.00 0.00 0.00 0.48 0.32 0.27 0.28 0.24 0.54 0.51 0.44 0.65 0.54 0.48 0.52 0.92 0.96 1.23 0.90 0.87 1.05 0.79 0.98 0.97 0.65 0.48 0.45 0.56 0.40 0.28 0.21 0.18 0.36 0.45 0.39 0.43 0.62 0.48 0.45 0.24 1.21 1.07 0.74 0.64 1.06 0.62 0.31 0.12 0.06 0.10 0.09 0.11 0.10 0.09 0.10 0.09 0.09 0.04 0.07 0.07 0.05 0.06 0.02 0.01 0.01 0.01 0.01 0.00 0.00 0.00 0.00 0.00 0.00 0.00
0.00 0.00 0.00 0.00 0.00 0.00 0.00 0.00 0.00 0.00 0.00 0.00 0.00 0.00 0.00 0.00 0.00 0.00 0.00 0.00 0.00 0.00 0.00 0.00 0.01 0.02 0.48 0.17 0.45 0.30 0.74 0.46 0.62 0.62 0.21 0.18 0.14 0.35 0.56 1.10 1.05 1.29 1.63 0.95 0.57 0.84 0.66 0.69 0.67 0.56 0.59 0.63 0.63 0.33 0.26 0.21 0.33 0.17 0.37 0.54 0.57 0.44 0.55 0.55 0.62 0.75 0.99 1.02 0.91 0.38 0.25 0.12 0.11 0.10 0.16 0.10 0.19 0.18 0.11 0.06 0.07 0.06 0.05 0.04 0.05 0.04 0.02 0.02 0.01 0.01 0.00 0.00 0.00 0.00 0.00 0.00 0.00
0.00 0.00 0.00 0.00 0.00 0.00 0.00 0.00 0.00 0.00 0.00 0.00 0.00 0.00 0.00 0.00 0.00 0.00 0.00 0.00 0.00 0.00 0.00 0.00 0.00 0.01 1.23 0.12 0.26 0.31 0.23 0.32 0.31 0.19 0.20 0.26 0.17 0.50 1.13 1.26 2.06 2.14 1.92 1.31 0.62 0.45 0.44 0.43 0.53 0.56 0.60 0.70 0.77 0.81 0.81 0.29 0.33 0.38 0.24 0.66 0.49 0.39 0.39 1.07 1.25 0.62 0.46 0.93 0.99 0.59 0.31 0.26 0.23 0.10 0.15 0.17 0.18 0.11 0.26 0.07 0.04 0.04 0.04 0.04 0.06 0.03 0.02 0.02 0.01 0.01 0.00 0.01 0.00 0.00 0.00 0.00 0.00
0.00 0.00 0.00 0.00 0.00 0.00 0.00 0.00 0.00 0.00 0.00 0.00 0.00 0.00 0.00 0.00 0.00 0.00 0.00 0.00 0.00 0.00 0.00 0.08 0.00 0.01 0.08 0.03 0.15 0.20 0.12 0.18 0.30 0.27 0.29 0.27 0.58 0.70 0.98 1.16 1.40 2.24 1.99 0.93 0.58 0.56 0.43 0.44 0.58 0.96 0.91 0.88 0.67 0.92 0.64 0.55 0.51 0.36 0.60 0.85 1.59 0.57 0.55 0.69 1.09 1.02 0.97 0.75 0.92 0.52 0.45 0.49 0.49 0.42 0.46 0.27 0.22 0.09 0.12 0.18 0.02 0.03 0.03 0.06 0.02 0.01 0.01 0.00 0.01 0.01 0.01 0.01 0.00 0.00 0.00 0.00 0.00
0.00 0.00 0.00 0.00 0.00 0.00 0.00 0.00 0.00 0.00 0.00 0.00 0.00 0.00 0.00 0.00 0.00 0.00 0.00 0.00 0.01 0.00 0.00 0.00 0.01 0.00 0.06 0.09 0.13 0.07 0.14 0.10 0.12 0.21 0.21 0.72 1.06 0.92 1.14 0.86 1.66 1.26 1.04 0.77 0.84 0.60 0.97 0.72 0.92 1.21 1.39 1.02 1.10 0.99 0.49 0.77 0.54 0.96 1.07 1.42 0.99 0.75 0.52 0.92 0.81 1.13 0.63 0.80 0.56 0.54 0.43 0.33 0.64 0.46 0.39 0.40 0.29 0.34 0.12 0.07 0.03 0.07 0.05 0.04 0.02 0.02 0.01 0.01 0.01 0.00 0.01 0.02 0.02 0.00 0.00 0.00 0.00
0.00 0.00 0.00 0.00 0.00 0.00 0.00 0.00 0.00 0.00 0.00 0.00 0.00 0.00 0.00 0.00 0.00 0.00 0.00 0.00 0.00 0.00 0.00 0.01 0.01 0.05 0.07 0.07 0.14 0.06 0.13 0.21 0.22 0.35 0.75 0.72 0.71 1.03 0.73 0.65 0.94 1.41 0.88 0.97 1.14 1.00 0.71 1.16 0.87 1.03 1.01 1.02 0.96 0.99 1.00 1.05 1.69 1.17 1.49 1.31 1.09 0.76 0.63 1.35 1.21 1.45 1.34 1.26 0.55 0.51 0.73 0.90 0.61 0.73 0.56 0.99 0.40 0.23 0.30 0.05 0.11 0.08 0.08 0.09 0.03 0.01 0.01 0.01 0.01 0.01 0.00 0.00 0.03 0.02 0.00 0.00 0.00
0.00 0.00 0.00 0.00 0.00 0.00 0.00 0.00 0.00 0.00 0.00 0.00 0.00 0.00 0.00 0.00 0.00 0.00 0.01 0.00 0.00 0.00 0.01 0.01 0.03 0.12 0.17 0.19 0.16 0.12 0.14 0.25 0.28 0.66 0.76 0.68 0.65 0.56 0.73 1.24 1.31 1.03 1.22 0.68 0.88 1.15 1.63 0.99 0.70 0.88 0.89 0.89 1.08 1.12 0.70 1.19 1.16 0.90 1.23 1.01 0.69 0.99 1.42 1.20 1.98 1.13 1.51 1.10 1.41 0.76 1.45 1.12 0.93 1.43 0.86 0.57 0.47 0.52 0.26 0.05 0.09 0.21 0.13 0.11 0.03 0.02 0.01 0.01 0.01 0.00 0.00 0.00 0.01 0.01 0.00 0.02 0.03
0.00 0.00 0.00 0.00 0.00 0.00 0.00 0.00 0.00 0.00 0.00 0.00 0.00 0.00 0.00 0.00 0.00 0.00 0.01 0.01 0.00 0.00 0.03 0.02 0.07 0.23 0.17 0.23 0.15 0.17 0.30 0.45 0.55 0.48 0.64 0.82 0.99 0.67 0.58 0.88 0.69 0.87 0.97 0.98 1.40 0.94 1.20 0.95 0.71 0.88 1.12 1.08 1.03 0.92 0.72 0.64 1.02 1.57 0.61 0.82 0.93 0.87 1.20 1.77 1.63 1.66 1.54 2.06 2.07 1.78 1.68 1.48 1.34 1.53 1.26 0.86 0.78 0.60 0.42 0.15 0.20 0.24 0.20 0.17 0.07 0.06 0.02 0.01 0.01 0.01 0.01 0.00 0.00 0.01 0.01 0.02 0.01
0.00 0.00 0.00 0.00 0.00 0.00 0.00 0.00 0.00 0.00 0.00 0.00 0.00 0.00 0.00 0.00 0.00 0.00 0.00 0.00 0.03 0.01 0.00 0.03 0.10 0.19 0.18 0.20 0.25 0.17 0.30 0.44 0.63 0.55 0.82 0.62 1.41 1.04 1.48 1.61 1.06 1.71 2.19 1.76 1.44 0.98 0.60 0.85 0.71 0.66 0.77 0.64 0.76 0.61 0.82 0.98 1.41 0.70 0.65 1.14 0.95 0.76 0.59 1.94 1.84 1.21 1.68 1.71 1.40 1.78 1.22 1.73 1.63 1.38 0.91 0.66 0.65 0.45 0.65 0.38 0.54 0.37 0.41 0.32 0.15 0.08 0.15 0.14 0.01 0.03 0.06 0.02 0.02 0.02 0.01 0.01 0.02
0.00 0.00 0.00 0.00 0.00 0.00 0.00 0.00 0.00 0.00 0.00 0.00 0.00 0.00 0.00 0.00 0.00 0.00 0.00 0.00 0.01 0.00 0.03 0.01 0.06 0.03 0.15 0.22 0.18 0.13 0.25 0.36 0.36 0.37 0.95 1.14 1.17 1.20 3.34 2.69 2.71 2.62 2.19 1.16 1.17 1.09 1.04 0.60 0.47 0.42 0.70 0.66 0.71 0.62 0.72 1.18 0.98 0.69 0.71 0.73 0.91 0.95 1.01 1.51 1.57 1.20 0.90 1.14 1.39 1.22 1.75 1.86 1.55 1.23 1.51 1.25 0.90 1.01 0.68 0.52 0.49 0.48 0.33 0.31 0.26 0.52 0.21 0.14 0.14 0.13 0.05 0.05 0.02 0.02 0.01 0.02 0.00
0.00 0.00 0.00 0.00 0.00 0.00 0.00 0.00 0.00 0.00 0.00 0.00 0.00 0.00 0.00 0.00 0.00 0.00 0.00 0.00 0.00 0.00 0.00 0.00 0.00 0.04 0.08 0.08 0.10 0.19 0.25 0.37 0.57 1.34 1.25 1.78 3.01 3.31 2.78 2.62 1.73 1.92 1.27 1.18 1.21 0.82 0.86 0.75 0.50 0.65 0.61 0.51 0.78 0.76 0.78 0.84 1.22 0.99 0.90 0.74 0.77 1.19 0.86 1.57 0.96 1.09 1.25 1.91 1.42 1.58 1.42 1.05 1.13 1.06 1.19 0.93 0.58 1.13 0.76 0.87 0.66 0.49 0.42 0.51 0.45 0.56 0.41 0.34 0.24 0.12 0.38 0.24 0.05 0.02 0.02 0.01 0.00
0.00 0.00 0.00 0.00 0.00 0.00 0.00 0.00 0.00 0.00 0.00 0.00 0.00 0.00 0.00 0.00 0.00 0.00 0.00 0.00 0.00 0.00 0.00 0.01 0.03 0.09 0.10 0.13 0.10 0.08 0.15 0.28 0.92 1.40 2.58 2.87 2.78 3.45 2.66 2.97 2.73 2.56 1.90 1.42 0.89 1.28 0.49 0.88 0.57 0.46 0.43 0.48 0.68 0.78 0.49 0.45 0.59 0.62 0.73 0.90 0.91 1.28 1.67 1.50 1.15 1.02 1.08 1.72 1.49 2.09 1.35 1.14 0.75 1.06 1.28 0.81 0.48 0.81 0.62 0.83 0.96 1.10 0.86 0.54 0.58 0.55 0.52 0.32 0.24 0.28 0.28 0.29 0.38 0.13 0.02 0.01 0.01
0.00 0.00 0.00 0.00 0.00 0.00 0.00 0.00 0.00 0.00 0.00 0.00 0.00 0.00 0.00 0.00 0.00 0.00 0.00 0.00 0.00 0.00 0.00 0.01 0.01 0.04 0.11 0.07 0.12 0.22 0.29 0.33 1.11 1.58 2.86 3.22 1.42 1.26 1.96 2.54 2.99 2.14 1.30 1.03 1.06 1.14 0.99 0.95 0.83 0.37 0.58 0.57 0.52 0.58 0.45 0.45 0.57 0.88 0.63 0.97 1.12 1.32 0.95 1.36 1.27 1.39 2.18 1.78 1.83 1.49 1.28 1.46 1.30 0.94 0.88 0.97 0.83 0.85 1.12 1.17 1.36 1.37 1.37 1.00 0.95 0.36 0.51 0.54 0.68 0.63 0.54 0.49 0.41 0.54 0.18 0.01 0.01
0.00 0.00 0.00 0.00 0.00 0.00 0.00 0.00 0.00 0.00 0.00 0.00 0.00 0.00 0.00 0.00 0.00 0.00 0.00 0.00 0.00 0.00 0.00 0.01 0.03 0.12 0.14 0.12 0.16 0.23 0.32 0.36 0.17 1.64 3.62 2.36 2.48 2.10 1.44 1.85 1.39 1.16 1.76 2.25 1.66 1.23 1.22 1.44 0.70 0.49 0.83 0.64 0.76 0.86 0.59 0.55 0.83 1.15 0.75 0.97 0.68 0.92 1.28 1.79 1.37 1.49 1.64 2.16 1.31 0.95 1.06 1.09 1.29 1.15 0.86 1.15 0.71 0.76 1.27 1.96 2.27 1.89 1.84 1.53 0.90 0.61 0.45 0.41 1.19 0.98 0.93 0.44 0.62 0.29 0.35 0.14 0.02
0.00 0.00 0.00 0.00 0.00 0.00 0.00 0.00 0.00 0.00 0.00 0.00 0.00 0.00 0.00 0.00 0.00 0.00 0.00 0.00 0.00 0.00 0.01 0.03 0.02 0.10 0.17 0.11 0.18 0.32 0.11 0.13 0.25 1.98 0.35 0.33 1.01 1.70 2.06 1.32 0.57 0.80 0.75 1.08 1.17 1.26 0.85 0.76 1.24 0.75 1.16 1.27 1.16 1.01 0.68 0.59 0.81 1.30 1.22 0.89 0.79 1.39 1.46 1.59 1.98 1.59 1.65 1.75 1.39 0.71 0.78 0.66 0.83 1.11 0.68 0.92 1.75 1.95 1.36 1.28 1.23 2.67 2.18 2.08 1.11 0.59 0.81 0.73 1.01 0.95 0.80 0.67 0.44 0.24 0.68 0.28 0.06
0.00 0.00 0.00 0.00 0.00 0.00 0.00 0.00 0.00 0.00 0.00 0.00 0.00 0.00 0.00 0.00 0.00 0.00 0.00 0.00 0.00 0.00 0.01 0.03 0.03 0.14 0.18 0.13 0.13 0.15 0.15 0.14 0.21 0.22 0.27 0.76 1.15 1.63 1.12 0.98 1.16 0.99 0.54 1.71 0.80 1.07 1.13 1.34 1.22 0.64 0.58 0.50 0.33 0.54 0.44 0.89 1.14 1.13 1.09 0.83 1.09 1.21 1.23 1.26 1.70 1.66 2.03 1.15 1.03 0.84 0.40 0.74 0.87 0.93 0.86 1.53 1.06 1.27 1.26 0.87 0.90 1.86 1.82 2.09 2.04 1.02 0.64 0.83 1.12 0.81 0.88 0.47 0.36 0.53 0.48 0.35 0.25
0.00 0.00 0.00 0.00 0.00 0.00 0.00 0.00 0.00 0.00 0.00 0.00 0.00 0.00 0.00 0.00 0.00 0.00 0.00 0.01 0.00 0.00 0.02 0.03 0.05 0.12 0.16 0.15 0.17 0.18 0.14 0.17 0.19 0.08 0.38 0.53 0.99 0.65 0.99 1.44 2.10 1.31 0.87 0.86 0.83 0.74 0.94 1.22 1.06 0.59 0.28 0.28 0.53 0.32 0.58 0.37 0.52 0.49 0.60 0.44 0.58 0.77 0.77 1.02 1.11 0.81 0.67 0.90 0.94 0.52 0.48 0.73 0.79 0.95 1.28 1.17 1.01 0.81 0.90 1.17 1.23 1.01 1.83 2.63 2.85 1.79 1.73 1.56 0.79 0.55 0.96 0.70 0.60 0.34 0.29 0.29 0.14
0.00 0.00 0.00 0.00 0.00 0.00 0.00 0.00 0.00 0.00 0.00 0.00 0.00 0.00 0.00 0.00 0.00 0.00 0.01 0.01 0.01 0.01 0.03 0.06 0.08 0.09 0.14 0.17 0.34 0.32 0.37 0.40 0.29 0.33 0.66 0.95 0.36 0.75 1.08 1.66 1.71 1.42 0.82 0.63 0.81 0.70 0.96 0.67 0.84 0.77 0.59 0.45 0.52 0.37 0.23 0.37 0.36 0.58 0.32 0.33 0.38 0.46 0.57 0.58 0.70 0.77 0.74 1.01 0.82 0.71 0.94 1.34 1.43 0.83 0.83 0.91 0.87 1.17 0.81 1.11 0.87 1.09 1.27 2.94 2.15 2.23 2.47 2.22 1.02 0.64 0.70 0.32 0.36 0.37 0.37 0.28 0.25
0.00 0.00 0.00 0.00 0.00 0.00 0.00 0.00 0.00 0.00 0.00 0.00 0.00 0.00 0.00 0.00 0.00 0.00 0.01 0.00 0.00 0.01 0.02 0.06 0.06 0.07 0.13 0.21 0.27 0.30 0.42 0.40 0.20 0.53 0.75 1.29 1.10 0.85 1.62 1.69 2.24 1.20 0.97 1.64 1.34 0.72 0.56 1.06 0.97 1.38 0.75 0.76 0.56 0.90 0.41 0.28 0.33 0.36 0.24 0.22 0.38 0.40 0.73 0.34 0.26 0.66 0.39 0.39 0.75 0.68 0.88 0.52 0.92 0.85 0.80 0.74 0.61 0.90 1.53 1.48 0.70 0.44 0.70 0.85 1.18 1.30 2.21 2.18 1.62 1.39 1.12 0.63 0.38 0.29 0.56 0.68 0.54
0.00 0.00 0.00 0.00 0.00 0.00 0.00 0.00 0.00 0.00 0.00 0.00 0.00 0.00 0.00 0.00 0.00 0.00 0.01 0.01 0.01 0.00 0.03 0.12 0.07 0.07 0.14 0.12 0.30 0.24 0.36 0.30 0.42 0.31 0.41 0.47 0.98 1.44 1.47 1.77 1.63 1.70 1.28 1.83 0.97 0.49 0.47 0.71 0.70 0.83 0.87 0.84 1.04 0.46 0.33 0.21 0.29 0.35 0.22 0.31 0.41 0.45 0.43 0.39 0.48 0.57 0.40 0.52 0.50 0.71 1.32 0.70 0.23 0.20 0.43 0.56 1.25 1.22 1.19 1.20 0.63 0.91 0.90 0.69 0.78 1.23 1.80 1.99 1.57 1.16 1.04 0.62 0.35 0.27 0.33 0.51 0.76
0.00 0.00 0.00 0.00 0.00 0.00 0.00 0.00 0.00 0.00 0.00 0.00 0.00 0.00 0.00 0.00 0.00 0.00 0.01 0.01 0.01 0.01 0.03 0.09 0.07 0.08 0.14 0.14 0.11 0.11 0.21 0.34 0.20 0.18 0.34 0.60 1.20 1.07 1.70 1.33 1.15 1.62 1.55 1.02 1.04 0.94 0.43 1.31 1.28 0.95 1.35 1.46 0.90 0.32 0.19 0.09 0.23 0.26 0.33 0.27 0.39 0.36 0.30 0.33 0.20 0.56 0.40 0.50 0.42 0.20 0.35 0.30 0.24 0.19 0.66 0.43 0.92 1.16 1.06 0.94 1.01 1.23 1.03 0.85 0.67 0.61 0.90 1.60 1.90 1.46 0.76 0.66 0.55 0.53 0.34 0.68 0.64
0.00 0.00 0.00 0.00 0.00 0.00 0.01 0.00 0.00 0.00 0.00 0.00 0.00 0.00 0.00 0.00 0.00 0.00 0.02 0.01 0.01 0.01 0.02 0.09 0.07 0.10 0.10 0.10 0.17 0.10 0.09 0.15 0.23 0.16 0.25 0.44 0.77 0.83 1.25 0.52 0.78 1.18 1.48 1.59 1.92 1.57 1.19 0.72 0.77 1.21 1.10 0.69 0.66 0.47 0.31 0.15 0.46 0.49 0.54 0.31 0.23 0.17 0.19 0.24 0.23 0.31 0.33 0.24 0.13 0.15 0.12 0.41 0.68 0.57 0.38 0.37 0.42 0.76 0.76 1.12 1.28 2.41 1.40 0.99 1.01 0.87 0.91 1.09 1.14 1.11 1.20 0.79 0.71 0.59 0.77 0.90 0.94
0.00 0.00 0.00 0.00 0.00 0.00 0.00 0.00 0.00 0.00 0.00 0.00 0.00 0.00 0.00 0.00 0.00 0.00 0.00 0.01 0.01 0.01 0.01 0.07 0.08 0.09 0.07 0.05 0.08 0.11 0.09 0.10 0.04 0.14 0.54 0.58 0.60 1.07 0.51 0.40 0.55 0.78 1.56 1.70 1.13 1.56 1.19 0.77 0.52 0.30 0.22 0.27 0.36 0.16 0.29 0.36 0.25 0.17 0.15 0.18 0.20 0.17 0.10 0.26 0.17 0.15 0.15 0.32 0.20 0.12 0.19 0.17 0.19 0.33 0.37 0.57 0.53 0.66 0.36 0.64 1.21 1.96 1.55 1.94 1.89 1.52 0.95 0.60 0.75 1.10 1.44 1.33 0.93 1.02 1.47 0.74 0.80
0.00 0.01 0.00 0.00 0.00 0.00 0.00 0.00 0.00 0.00 0.00 0.00 0.00 0.00 0.00 0.00 0.00 0.00 0.01 0.01 0.01 0.01 0.02 0.04 0.10 0.09 0.06 0.04 0.07 0.07 0.11 0.11 0.10 0.22 0.47 0.28 0.44 0.65 0.36 0.64 0.86 0.85 1.13 0.73 1.15 0.65 0.67 1.18 0.39 0.19 0.18 0.26 0.32 0.62 0.72 0.46 0.49 0.24 0.17 0.08 0.09 0.11 0.06 0.04 0.09 0.14 0.06 0.09 0.19 0.37 0.27 0.34 0.14 0.20 0.23 0.62 1.27 0.50 0.69 0.80 0.90 0.81 1.57 2.38 1.87 1.43 0.79 0.66 0.70 1.22 0.93 1.05 1.39 1.04 0.84 0.83 0.85
0.00 0.00 0.00 0.01 0.00 0.00 0.00 0.00 0.00 0.00 0.00 0.00 0.00 0.00 0.00 0.00 0.00 0.00 0.00 0.01 0.01 0.01 0.02 0.03 0.08 0.05 0.04 0.05 0.05 0.14 0.10 0.18 0.71 0.88 0.28 0.54 0.84 1.04 0.33 0.39 0.43 0.40 0.91 0.80 0.59 0.73 0.77 0.75 0.59 0.30 0.51 0.67 1.11 0.90 0.41 0.36 0.40 0.07 0.05 0.03 0.05 0.04 0.04 0.03 0.07 0.14 0.10 0.09 0.16 0.25 0.33 0.41 0.42 0.25 0.33 0.26 0.36 0.34 0.59 0.62 1.50 1.40 0.73 1.31 1.14 1.55 1.36 1.04 0.97 1.30 1.35 0.87 1.03 0.97 1.47 1.26 1.39
0.00 0.00 0.00 0.00 0.00 0.00 0.00 0.00 0.00 0.00 0.00 0.00 0.00 0.00 0.00 0.00 0.00 0.00 0.01 0.01 0.01 0.01 0.01 0.01 0.02 0.01 0.03 0.02 0.05 0.13 0.17 0.37 0.65 0.70 0.42 0.35 0.75 0.57 0.75 0.37 0.20 0.24 0.39 0.76 0.52 0.79 0.96 0.90 0.89 0.97 1.11 0.94 0.85 0.42 0.44 0.37 0.19 0.05 0.02 0.04 0.10 0.05 0.04 0.04 0.07 0.09 0.05 0.16 0.18 0.21 0.21 0.22 0.22 0.30 0.15 0.46 0.33 0.18 0.21 0.26 0.67 0.85 0.96 1.05 1.05 0.97 0.79 1.63 1.73 1.32 1.07 1.25 1.29 1.36 1.54 1.70 1.74
0.00 0.00 0.00 0.00 0.00 0.00 0.00 0.00 0.00 0.00 0.00 0.00 0.00 0.00 0.00 0.00 0.00 0.00 0.00 0.01 0.01 0.00 0.00 0.01 0.01 0.01 0.01 0.02 0.05 0.16 0.52 0.29 0.51 0.88 0.55 0.57 0.73 0.61 0.62 0.34 0.40 0.27 0.38 0.41 0.83 0.46 0.53 0.32 0.66 0.63 0.81 0.27 0.23 0.13 0.10 0.14 0.09 0.05 0.09 0.07 0.07 0.03 0.03 0.04 0.02 0.03 0.07 0.10 0.24 0.39 0.22 0.22 0.29 0.09 0.11 0.23 0.13 0.13 0.15 0.10 0.14 0.40 0.82 1.33 1.10 0.80 0.56 0.91 1.22 1.52 1.40 1.02 1.44 1.19 1.28 1.66 1.60
0.00 0.00 0.00 0.00 0.00 0.00 0.04 0.00 0.00 0.00 0.00 0.00 0.00 0.00 0.00 0.00 0.00 0.00 0.00 0.00 0.01 0.01 0.00 0.01 0.01 0.00 0.01 0.02 0.03 0.08 0.05 0.52 1.17 0.99 0.70 0.89 0.78 0.73 0.37 0.30 0.22 0.22 0.23 0.36 0.36 0.30 0.34 1.09 0.84 0.75 0.21 0.19 0.14 0.11 0.08 0.05 0.07 0.08 0.09 0.13 0.04 0.03 0.02 0.02 0.03 0.03 0.07 0.16 0.21 0.11 0.38 0.14 0.13 0.05 0.04 0.04 0.04 0.23 0.15 0.08 0.08 0.09 0.28 0.80 1.02 1.26 1.05 0.92 0.53 0.91 1.14 1.13 1.34 1.53 1.02 1.82 1.31
0.00 0.00 0.00 0.00 0.00 0.01 0.00 0.05 0.00 0.00 0.00 0.00 0.00 0.00 0.00 0.00 0.00 0.00 0.00 0.00 0.00 0.00 0.01 0.01 0.01 0.00 0.01 0.03 0.10 0.06 0.10 0.20 0.49 1.23 1.15 0.71 0.74 0.38 0.19 0.15 0.20 0.13 0.39 0.31 0.21 0.35 0.54 0.49 0.36 0.44 0.76 0.60 0.31 0.14 0.25 0.25 0.24 0.28 0.11 0.12 0.07 0.05 0.05 0.03 0.10 0.07 0.06 0.03 0.13 0.06 0.20 0.08 0.03 0.02 0.03 0.01 0.04 0.07 0.05 0.04 0.10 0.07 0.06 0.23 0.52 0.91 1.00 0.74 0.54 0.46 0.44 0.54 0.86 1.12 1.04 1.47 1.39
0.00 0.00 0.00 0.00 0.00 0.00 0.00 0.00 0.00 0.00 0.01 0.00 0.00 0.02 0.02 0.01 0.00 0.00 0.00 0.00 0.03 0.00 0.00 0.00 0.00 0.02 0.02 0.06 0.11 0.07 0.12 0.79 0.67 0.61 0.81 0.45 0.59 0.46 0.25 0.14 0.16 0.12 0.12 0.17 0.29 0.68 0.79 1.09 0.97 0.84 1.57 1.41 0.67 0.35 0.27 0.29 0.20 0.23 0.14 0.19 0.06 0.12 0.07 0.08 0.08 0.03 0.02 0.03 0.07 0.04 0.03 0.04 0.02 0.04 0.03 0.04 0.02 0.06 0.03 0.02 0.05 0.04 0.13 0.03 0.10 0.35 0.57 0.80 1.00 0.78 0.39 0.43 0.42 0.62 0.53 0.52 1.25
0.00 0.05 0.00 0.00 0.00 0.00 0.00 0.00 0.00 0.03 0.07 0.06 0.00 0.03 0.05 0.01 0.01 0.00 0.00 0.00 0.00 0.00 0.02 0.01 0.04 0.11 0.07 0.12 0.08 0.34 0.32 0.48 0.82 0.33 0.29 0.46 1.05 1.13 1.19 0.49 0.23 0.08 0.08 0.17 0.50 0.73 1.44 1.88 0.95 1.81 1.27 0.63 0.49 0.45 0.34 0.14 0.28 0.17 0.15 0.11 0.08 0.11 0.21 0.09 0.13 0.06 0.08 0.01 0.02 0.03 0.03 0.02 0.03 0.04 0.02 0.02 0.02 0.02 0.03 0.04 0.03 0.02 0.03 0.04 0.03 0.08 0.19 0.31 0.57 0.75 0.95 0.84 0.45 0.59 0.55 0.46 0.38
0.03 0.04 0.00 0.00 0.00 0.00 0.01 0.00 0.00 0.06 0.01 0.01 0.00 0.01 0.04 0.02 0.03 0.00 0.01 0.01 0.02 0.01 0.02 0.02 0.09 0.09 0.10 0.20 0.15 0.12 0.39 0.57 0.26 0.18 0.29 0.38 0.69 1.04 0.54 0.70 0.35 0.19 0.22 0.56 1.33 0.77 1.64 0.71 1.58 0.94 0.88 0.58 0.61 0.63 0.63 1.00 0.16 0.09 0.19 0.25 0.14 0.10 0.17 0.12 0.07 0.07 0.06 0.03 0.01 0.01 0.02 0.03 0.02 0.04 0.03 0.03 0.03 0.03 0.02 0.05 0.03 0.04 0.08 0.08 0.07 0.10 0.06 0.15 0.28 0.46 0.63 0.75 0.93 0.67 0.51 0.51 0.32
0.07 0.00 0.00 0.01 0.00 0.04 0.00 0.00 0.02 0.06 0.02 0.09 0.01 0.01 0.01 0.06 0.03 0.00 0.01 0.01 0.01 0.04 0.02 0.09 0.05 0.08 0.18 0.20 0.20 0.31 0.31 0.23 0.25 0.08 0.13 0.21 0.50 1.35 1.29 1.16 0.62 0.47 1.32 1.04 0.40 1.11 2.20 1.41 0.45 0.64 1.12 1.41 0.86 0.46 0.63 0.18 0.19 0.24 0.12 0.13 0.09 0.15 0.18 0.21 0.04 0.03 0.06 0.03 0.06 0.02 0.04 0.05 0.03 0.02 0.04 0.04 0.04 0.03 0.04 0.03 0.04 0.06 0.06 0.06 0.08 0.06 0.11 0.10 0.14 0.27 0.40 0.59 0.75 0.87 0.82 0.69 0.51
0.00 0.00 0.00 0.00 0.00 0.00 0.00 0.01 0.01 0.04 0.01 0.04 0.05 0.05 0.04 0.03 0.03 0.01 0.00 0.01 0.09 0.06 0.07 0.02 0.09 0.06 0.09 0.13 0.22 0.18 0.32 0.15 0.13 0.08 0.10 0.23 0.49 0.85 1.00 0.91 0.49 0.65 1.28 1.08 0.68 0.97 0.89 0.80 1.27 2.13 2.26 2.49 1.24 0.80 0.45 0.46 0.42 0.36 0.34 0.11 0.12 0.17 0.08 0.07 0.07 0.12 0.04 0.11 0.11 0.06 0.19 0.03 0.03 0.04 0.03 0.02 0.02 0.04 0.04 0.03 0.06 0.03 0.01 0.02 0.02 0.05 0.09 0.07 0.07 0.13 0.20 0.33 0.46 0.55 0.76 0.68 0.62
0.00 0.00 0.00 0.01 0.00 0.01 0.00 0.00 0.03 0.02 0.04 0.02 0.01 0.04 0.01 0.07 0.15 0.10 0.16 0.01 0.03 0.07 0.10 0.05 0.01 0.05 0.04 0.10 0.23 0.29 0.48 0.32 0.17 0.13 0.12 0.20 0.75 0.90 1.01 0.92 1.46 1.94 1.76 0.88 0.43 0.38 0.67 0.64 0.90 1.13 0.94 0.90 0.53 0.77 0.61 0.74 0.43 0.17 0.11 0.25 0.23 0.21 0.22 0.07 0.06 0.28 0.35 0.18 0.11 0.14 0.07 0.05 0.04 0.03 0.03 0.03 0.04 0.01 0.01 0.00 0.00 0.01 0.01 0.01 0.00 0.01 0.03 0.11 0.06 0.07 0.09 0.14 0.24 0.38 0.42 0.56 0.52
0.00 0.00 0.02 0.01 0.03 0.01 0.02 0.06 0.05 0.10 0.01 0.03 0.03 0.01 0.11 0.06 0.12 0.12 0.07 0.02 0.01 0.02 0.08 0.04 0.03 0.04 0.05 0.07 0.23 0.35 0.37 0.35 0.27 0.24 0.18 0.23 0.53 1.02 0.99 1.15 1.15 0.65 0.66 0.80 0.76 0.46 0.45 0.36 0.26 0.54 1.61 1.05 2.61 2.26 1.53 0.48 0.25 0.13 0.13 0.16 0.22 0.32 0.23 0.25 0.18 0.26 0.08 0.18 0.12 0.08 0.08 0.02 0.01 0.02 0.01 0.01 0.01 0.01 0.01 0.00 0.00 0.00 0.00 0.00 0.00 0.01 0.01 0.02 0.08 0.09 0.07 0.08 0.13 0.20 0.33 0.33 0.46
0.00 0.00 0.01 0.08 0.09 0.01 0.10 0.05 0.06 0.04 0.01 0.13 0.01 0.03 0.03 0.01 0.24 0.08 0.02 0.04 0.02 0.03 0.03 0.06 0.04 0.06 0.06 0.06 0.07 0.18 0.17 0.32 0.65 0.82 0.84 0.67 0.41 0.76 0.67 0.68 0.37 1.02 1.05 0.77 0.54 0.66 0.46 0.38 0.27 0.58 2.18 1.97 0.71 0.17 0.16 0.09 0.20 0.16 0.20 0.18 0.19 0.24 0.38 0.21 0.33 0.26 0.17 0.11 0.05 0.04 0.01 0.01 0.00 0.00 0.01 0.01 0.00 0.01 0.00 0.00 0.00 0.00 0.00 0.00 0.00 0.00 0.01 0.01 0.02 0.07 0.14 0.09 0.07 0.12 0.08 0.23 0.43
0.00 0.01 0.11 0.06 0.14 0.04 0.03 0.10 0.04 0.07 0.03 0.04 0.09 0.05 0.03 0.08 0.19 0.08 0.12 0.03 0.05 0.06 0.05 0.04 0.04 0.08 0.07 0.07 0.33 0.84 1.14 1.36 0.79 0.52 0.48 0.21 0.14 0.20 0.83 0.99 0.93 1.38 0.71 0.85 0.57 0.96 0.98 0.65 0.44 0.85 1.16 0.67 0.26 0.31 0.04 0.06 0.07 0.11 0.49 0.28 0.27 0.41 0.23 0.34 0.29 0.22 0.10 0.16 0.08 0.01 0.00 0.00 0.00 0.00 0.00 0.00 0.00 0.00 0.00 0.00 0.00 0.00 0.00 0.00 0.00 0.00 0.01 0.03 0.03 0.03 0.05 0.12 0.20 0.08 0.07 0.09 0.18
0.01 0.00 0.01 0.17 0.12 0.16 0.05 0.08 0.06 0.02 0.17 0.06 0.04 0.00 0.04 0.01 0.43 0.03 0.05 0.04 0.04 0.06 0.20 0.19 0.17 0.12 0.16 0.34 0.42 0.23 0.22 0.40 0.34 0.35 0.43 0.46 0.26 0.30 1.23 1.44 1.60 1.26 0.65 0.66 0.69 0.52 0.97 1.36 1.13 1.93 1.93 0.78 0.39 0.28 0.12 0.05 0.09 0.09 0.12 0.23 0.10 0.14 0.30 0.32 0.25 0.33 0.18 0.09 0.07 0.01 0.00 0.00 0.00 0.00 0.00 0.00 0.00 0.00 0.00 0.00 0.00 0.00 0.00 0.00 0.00 0.00 0.00 0.01 0.01 0.03 0.05 0.04 0.05 0.09 0.10 0.10 0.10
0.00 0.01 0.00 0.02 0.08 0.03 0.12 0.24 0.04 0.18 0.10 0.04 0.03 0.00 0.07 0.27 0.09 0.07 0.05 0.05 0.08 0.06 0.04 0.06 0.08 0.10 0.12 0.15 0.05 0.08 0.16 0.17 0.28 0.33 0.29 0.39 1.04 1.10 1.52 2.14 2.04 1.18 0.54 0.55 0.51 0.89 1.11 0.68 1.36 1.74 1.96 1.13 0.91 0.56 0.11 0.05 0.05 0.14 0.06 0.07 0.07 0.21 0.08 0.25 0.16 0.25 0.21 0.11 0.02 0.01 0.00 0.00 0.00 0.00 0.00 0.00 0.00 0.00 0.00 0.00 0.00 0.00 0.00 0.00 0.00 0.00 0.00 0.01 0.01 0.01 0.01 0.07 0.06 0.02 0.08 0.09 0.14
0.30 0.00 0.08 0.07 0.05 0.02 0.09 0.00 0.01 0.00 0.00 0.04 0.03 0.03 0.04 0.02 0.09 0.05 0.14 0.06 0.06 0.17 0.22 0.18 0.13 0.16 0.14 0.10 0.09 0.09 0.06 0.08 0.13 0.36 0.80 1.04 1.06 1.23 1.34 0.66 0.86 0.48 0.51 0.43 0.33 0.43 0.87 0.81 1.09 1.35 1.82 1.62 0.85 0.82 0.77 0.12 0.08 0.04 0.02 0.01 0.07 0.05 0.11 0.16 0.25 0.26 0.10 0.03 0.00 0.00 0.00 0.00 0.00 0.00 0.00 0.00 0.01 0.01 0.01 0.01 0.01 0.01 0.01 0.00 0.00 0.00 0.00 0.00 0.01 0.01 0.01 0.01 0.05 0.05 0.09 0.07 0.17
0.09 0.04 0.11 0.01 0.00 0.04 0.05 0.13 0.08 0.03 0.03 0.04 0.00 0.01 0.17 0.02 0.41 0.04 0.01 0.03 0.06 0.10 0.17 0.16 0.19 0.21 0.20 0.32 0.19 0.20 0.27 0.15 0.31 1.00 0.94 0.73 1.24 0.75 0.60 0.90 0.76 0.40 0.31 0.75 0.60 0.46 0.43 0.99 2.09 3.13 2.71 3.79 2.23 1.04 0.24 0.20 0.26 0.04 0.02 0.01 0.03 0.03 0.05 0.03 0.14 0.09 0.02 0.01 0.00 0.00 0.00 0.00 0.00 0.00 0.00 0.00 0.00 0.00 0.00 0.01 0.01 0.01 0.00 0.00 0.00 0.00 0.00 0.00 0.00 0.01 0.02 0.01 0.01 0.03 0.10 0.09 0.04
0.02 0.07 0.03 0.03 0.19 0.13 0.08 0.01 0.03 0.07 0.01 0.06 0.01 0.03 0.07 0.12 0.20 0.07 0.10 0.12 0.05 0.08 0.11 0.17 0.17 0.16 0.16 0.17 0.56 0.76 0.92 0.91 0.96 0.83 0.84 0.96 0.71 0.46 0.67 0.58 0.75 0.48 0.68 1.04 0.87 1.66 1.32 0.71 2.29 1.58 1.83 2.30 1.50 1.18 1.15 0.84 0.50 0.06 0.03 0.02 0.06 0.03 0.06 0.09 0.03 0.00 0.00 0.00 0.00 0.00 0.00 0.00 0.00 0.00 0.01 0.00 0.00 0.00 0.01 0.01 0.01 0.01 0.00 0.00 0.00 0.00 0.00 0.00 0.01 0.01 0.01 0.01 0.01 0.01 0.02 0.08 0.14
0.00 0.00 0.00 0.03 0.02 0.07 0.15 0.09 0.18 0.04 0.15 0.02 0.03 0.06 0.23 0.11 0.31 0.18 0.20 0.08 0.17 0.09 0.08 0.24 0.20 0.36 0.43 0.32 0.37 0.50 1.06 1.24 0.63 0.77 0.67 0.91 0.89 0.93 1.26 0.72 0.45 0.75 0.96 0.86 1.30 1.33 1.01 1.11 1.73 1.63 1.44 1.75 1.59 1.83 1.29 0.44 0.20 0.04 0.03 0.03 0.27 0.29 0.03 0.06 0.02 0.00 0.00 0.00 0.00 0.00 0.00 0.00 0.00 0.00 0.00 0.00 0.01 0.01 0.00 0.01 0.00 0.00 0.01 0.00 0.00 0.00 0.00 0.00 0.00 0.01 0.01 0.01 0.02 0.01 0.01 0.02 0.09
0.06 0.02 0.01 0.02 0.02 0.03 0.02 0.11 0.06 0.14 0.26 0.11 0.15 0.12 0.28 0.31 0.17 0.07 0.21 0.17 0.13 0.15 0.41 0.57 0.50 0.90 1.11 1.18 1.19 1.32 1.33 0.79 0.62 0.90 0.73 1.47 1.72 2.38 1.50 1.45 1.58 1.41 1.05 1.62 1.59 1.09 0.92 1.11 0.85 0.67 0.57 0.93 0.98 1.29 1.03 1.09 0.44 0.14 0.04 0.06 0.19 0.14 0.07 0.01 0.01 0.01 0.00 0.01 0.00 0.00 0.01 0.00 0.00 0.00 0.00 0.00 0.00 0.00 0.00 0.00 0.00 0.00 0.00 0.00 0.00 0.00 0.00 0.00 0.01 0.01 0.01 0.01 0.01 0.01 0.01 0.01 0.01
0.04 0.08 0.12 0.07 0.16 0.25 0.23 0.37 0.02 0.10 0.18 0.17 0.08 0.15 0.29 0.34 0.07 0.11 0.14 0.22 0.22 0.19 0.32 0.48 0.54 0.14 0.13 0.23 0.09 0.16 0.22 0.25 0.58 0.82 0.63 0.63 1.38 1.21 1.37 1.29 0.74 0.86 2.09 2.63 1.68 1.38 0.90 0.89 0.48 0.83 1.04 0.99 0.84 0.96 0.88 0.48 0.34 0.35 0.21 0.23 0.33 0.28 0.17 0.16 0.09 0.01 0.01 0.00 0.00 0.00 0.00 0.00 0.00 0.00 0.00 0.00 0.00 0.00 0.00 0.00 0.00 0.00 0.00 0.00 0.00 0.00 0.00 0.00 0.00 0.01 0.01 0.01 0.01 0.01 0.00 0.01 0.01